Flag for Argentina Weather past 2 weeks in Viedma, Rio Negro, Argentina

Now
57 °F

Clear.


Feels Like: 57 °F
Forecast: 45 / 57 °F
Wind: No wind

Location: Mar Del Plata Aerodrome

Current Time: May 23, 2015 at 2:06:21 AM

Latest Report: May 23, 2015 at 1:00 AM


Visibility: 5 mi

Pressure: 29.86 "Hg

Humidity: 94%

Dew point: 55 °F

Location of ViedmaLocation

Historic Weather in Viedma — Graph

°F

Viedma temperature yesterday

Maximum temperature yesterday: 66 °F (at 2:00 PM)
Minimum temperature yesterday: 57 °F (at 7:00 AM)
Average temperature yesterday: 60 °F

Past Weeks' High & Low Weather Summary

 TemperatureHumidityPressure
High79 °F (May 20, 3:00 PM)100% (May 10, 2:00 AM)30.30 "Hg (May 10, 2:00 AM)
Low39 °F (May 8, 6:00 AM)46% (May 8, 4:00 PM)29.83 "Hg (May 21, 3:00 PM)
Average60 °F84%30.08 "Hg
* Reported Midnight between May 7 and May 8 — Midnight between May 22 and May 23, Viedma, Weather by CustomWeather, © 2015

Note: Actual official high and low records may vary slightly from our data, if they occured in-between our weather recording intervals... More about our weather records

Advertising

Viedma weather history for previous 24 hours

 ConditionsComfort  
Time TempWeatherWind HumidityBarometerVisibility
12:00 AM
Sat, May 23
57 °FClear.3 mph94%29.89 "Hg4 mi
11:00 PM
Fri, May 22
59 °FFog.No wind88%29.89 "Hg3 mi
10:00 PM57 °FFog.No wind88%29.89 "Hg3 mi
9:00 PM57 °FClear.No wind88%29.89 "Hg4 mi
8:00 PM57 °FPassing clouds.No wind77%29.89 "Hg5 mi
7:00 PM59 °FClear.No wind72%29.89 "Hg5 mi
6:00 PM61 °FPartly cloudy.5 mph63%29.92 "Hg5 mi
4:00 PM64 °FClear.5 mph46%29.89 "Hg5 mi
3:00 PM64 °FBroken clouds.6 mph46%29.89 "Hg4 mi
2:00 PM66 °FBroken clouds.5 mph49%29.92 "Hg4 mi
1:00 PM64 °FBroken clouds.No wind49%29.92 "Hg5 mi
12:00 PM63 °FPartly sunny.5 mph56%29.95 "Hg5 mi
11:00 AM61 °FBroken clouds.No wind63%29.95 "HgN/A
10:00 AM59 °FBroken clouds.6 mph77%29.95 "HgN/A
9:00 AM57 °FPartly sunny.No wind94%29.95 "HgN/A
8:00 AM57 °FBroken clouds.No wind88%29.95 "HgN/A
7:00 AM57 °FBroken clouds.No wind88%29.92 "HgN/A
6:00 AM59 °FClear.3 mph94%29.95 "Hg10 mi
5:00 AM59 °FPartly cloudy.3 mph100%29.95 "HgN/A
3:00 AM61 °FPartly cloudy.3 mph94%29.95 "HgN/A
2:00 AM61 °FPartly cloudy.No wind94%29.95 "HgN/A
Weather by CustomWeather, © 2015

See weather overviewHow to use our weather pages